Find Starlink 31048

NORAD ID: 58544 Int'l Des: 2023-192 Owner: SPXS Country: US Constellation: starlink operational
LEOCIRCULAR

リアルタイム位置

3D地球を読み込み中...

Starlink 31048について

説明を読み込み中...

次回通過

Passes for default location (London). Set your location on the main map for personalized predictions.

高度履歴

Loading altitude history...

軌道要素

1 58544U 23192P 26126.45891961 -.00001310 00000-0 -32134-4 0 9997
2 58544 53.1600 154.1134 0001232 80.2420 279.8720 15.30186753134839
Epoch: May 6, 2026 • Age: 12 hours

現在のステータス

高度 493.3 km
速度 7.62 km/s
衛星直下点 -49.81°S, 177.44°W
打ち上げ日 Dec 8, 2023
運用期間 2.4 years
タイプ internet

技術仕様

分類 Payload
質量 730.00 kg
乾燥質量 700.00 kg
総質量 730.00 kg
長さ 0.30 m
直径 4.10 m
スパン 29.00 m
形状 Box + pan
製造者 SPXS
バスタイプ Starlink V2M
フェーズステータス In Orbit
所有者/国 SPXS/US

Most Searched